Location: *
(40.7873°S, 98.7174°E)
Time: 10:43:33
(UTC+00:00)

NOSS 3-4 (C) - Pass Details

Date: 04 October 2022
Orbit: 836 x 1376 km, 63.4° (Epoch: 25 November)

Event Time Altitude Azimuth Distance (km) Brightness Sun altitude
Exits shadow 17:13:07 20° 117° (ESE) 2,706 5.9 -44.7°
Drops below altitude 10° 17:15:35 10° 128° (SE) 3,341 6.6 -44.7°
Sets 17:18:38 0° 137° (SE) 4,254 7.3 -44.7°
